{"data":{"norad_id":48134,"intl_designator":"2021-027AU","name":"STARLINK-2476","alt_names":[],"object_type":"PAYLOAD","status":"ACTIVE","operator":null,"country":"US","launch_date":"2021-04-07","launch_site_code":"AFETR","launch_vehicle":null,"mission":null,"orbit_class":"UNKNOWN","rcs_meters":null,"size_class":null,"mass_kg":null,"dimensions":null,"purposes":["comms"],"wikipedia_slug":null,"has_3d_model":false,"image_url":null,"decayed_at":null,"tle_current":{"epoch":"2026-05-25T02:18:06.232608Z","epoch_age_seconds":70266,"freshness":"FRESH","line1":"1 48134U 21027AU  26145.09590547  .00001130  00000+0  48178-4 0  9995","line2":"2 48134  53.1584 169.8776 0001390  76.9913 283.1243 15.31707194284218","mean_motion":15.31707194,"eccentricity":0.000139,"inclination_deg":53.1584,"raan_deg":169.8776,"arg_perigee_deg":76.9913,"mean_anomaly_deg":283.1243,"bstar":4.8178e-5,"rev_number":28421,"period_min":94.012746407457,"perigee_km":469.76655944843,"apogee_km":471.67054129143,"semimajor_km":6848.8555503699,"source":"CELESTRAK","updated_at":"2026-05-25T13:38:16.648988Z"}}}